Location: Stigler
(35.2540°N, 95.1230°W)
Time: 00:26:37
(UTC-05:00)

Daily predictions for brighter satellites

Satellite Brightness Start Highest point End
(mag) Time Altitude Azimuth Time Altitude Azimuth Time Altitude Azimuth
Cosmos 2219 Rocket 4.3 00:27:00 23° NNW 00:27:00 23° NNW 00:29:23 10° N
ATLAS 2AS CENTAUR R/B 4.3 01:00:29 31° NE 01:00:29 31° NE 01:04:25 10° NE
SL-16 R/B 4.5 01:15:11 20° N 01:15:11 20° N 01:16:50 10° NNE
CZ-4C R/B 4.4 01:26:58 10° NW 01:30:04 28° NW 01:30:04 28° NW
ATLAS 3B R/B 4.1 01:34:03 10° NNW 01:38:27 31° NNE 01:38:27 31° NNE
USA 215 4.3 02:04:29 10° NE 02:08:48 40° NNE 02:08:48 40° NNE
USA 267 4.5 02:34:58 10° E 02:40:50 37° NE 02:46:42 10° NNW
Cosmos 2369 Rocket 4.2 02:36:45 10° NNW 02:38:41 22° NNW 02:38:41 22° NNW
ATLAS 2AS CENTAUR R/B 4.1 02:47:53 33° NW 02:48:01 33° NW 02:55:08 10° NNE
Resurs 1-4 Rocket 4.0 02:54:57 10° NE 02:58:03 24° ENE 02:58:03 24° ENE
CZ-2D R/B 3.9 02:58:15 10° NE 03:01:33 26° ENE 03:01:33 26° ENE
Cosmos 1943 Rocket 3.5 03:03:17 10° NNW 03:06:33 34° N 03:06:33 34° N
ADEOS 4.5 03:24:36 10° NNE 03:28:35 45° ENE 03:28:35 45° ENE
Cosmos 1680 Rocket 4.4 03:34:11 45° NNE 03:34:11 45° NNE 03:37:49 10° NNE
Aureole 1 Rocket 4.4 03:35:18 45° N 03:35:18 45° N 03:38:27 10° NNE
SL-16 R/B 2.7 03:34:30 63° E 03:34:57 65° ENE 03:41:04 10° N
Meteor 1-21 4.5 03:42:00 64° NE 03:42:00 64° NE 03:46:52 10° NNE
IRS-1D 4.0 03:40:21 10° NNE 03:44:36 60° NNE 03:44:36 60° NNE
Lacrosse 5 rocket 3.2 03:50:27 30° E 03:50:27 30° E 03:53:34 10° ENE
Meteor 2-8 Rocket 4.3 03:51:11 86° ENE 03:51:11 86° ENE 03:57:18 10° N
GEOS 3 Rocket 4.3 03:50:08 10° NNE 03:54:37 45° NNW 03:54:37 45° NNW
Cosmos 1656 Rocket 3.9 03:49:57 10° NNW 03:55:20 65° ENE 03:55:59 59° ESE
Cosmos 1825 Rocket 4.4 04:01:11 50° NNE 04:01:11 50° NNE 04:04:33 10° NNE
ARIANE 5 R/B 2.7 03:55:30 10° N 04:00:03 65° NNW 04:00:03 65° NNW
RESURS DK-1 3.8 04:04:08 33° N 04:04:08 33° N 04:06:33 10° NNE
NOSS 2-2 (E) 4.4 04:04:42 44° ENE 04:04:42 44° ENE 04:08:05 10° NE
COSMOS 2455 3.0 03:58:47 10° NNW 04:04:48 69° ENE 04:10:46 10° SE
CZ-2D R/B 4.4 04:02:51 10° NNE 04:06:08 44° ENE 04:06:08 44° ENE
Okean O Rocket 4.3 04:05:50 10° ENE 04:08:28 15° E 04:11:05 10° SE
ADEOS II 4.4 04:05:32 10° NE 04:09:06 18° E 04:12:41 10° SE
Cosmos 1818 4.2 04:08:43 43° SE 04:09:30 46° ESE 04:14:42 10° NE
Cosmos 1934 Rocket 4.2 04:04:33 10° N 04:10:50 69° E 04:14:22 28° SSE
NOSS 3-2 (C) 3.9 04:07:25 10° NW 04:15:07 77° WSW 04:23:20 10° SSE
Cosmos 1271 Rocket 3.8 04:12:04 10° N 04:14:45 40° NNE 04:14:45 40° NNE
Tiangong 1 3.9 04:22:00 15° NNE 04:22:00 15° NNE 04:23:10 10° NE
USA 267 3.1 04:17:07 10° SSE 04:23:34 62° SW 04:30:02 10° NW
COBE Rocket 4.2 04:22:24 10° N 04:27:07 52° WNW 04:27:07 52° WNW
CENTAUR R/B 3.8 04:25:12 10° NNW 04:33:02 55° NE 04:41:16 10° SE
Cosmos 724 4.3 04:27:42 10° NW 04:33:36 57° WSW 04:35:03 45° SSW
ADEOS Rocket 3.6 04:32:13 10° N 04:37:49 41° WNW 04:38:59 38° W
MOZ.5/SAFIR/RUBIN 5/SL-8 3.6 04:37:42 51° S 04:38:52 79° W 04:43:32 10° NNW
Resurs 1-4 Rocket 3.0 04:34:36 10° N 04:39:08 31° WNW 04:39:08 31° WNW
NOSS 2-2 (D) 3.3 04:39:11 70° WNW 04:39:16 70° WNW 04:43:40 10° NNE
Cosmos 2082 Rocket 3.8 04:35:40 10° SSE 04:40:32 30° ESE 04:45:25 10° NE
COSMOS 2406 3.9 04:39:50 35° W 04:40:34 36° WNW 04:45:52 10° N
Cosmos 2098 Rocket 3.1 04:39:31 10° N 04:42:21 42° E 04:42:24 42° E
CZ-2D R/B 3.1 04:38:15 10° N 04:42:47 29° WNW 04:42:53 29° WNW
Cosmos 1833 Rocket 4.3 04:41:22 10° SSE 04:46:08 30° ESE 04:50:56 10° NE
Cosmos 389 Rocket 3.3 04:44:30 10° N 04:48:03 51° E 04:50:47 15° SSE
Cosmos 1953 2.7 04:44:26 10° NNW 04:47:42 46° WNW 04:47:42 46° WNW
Delta 2 Rocket 2.7 04:51:27 84° ENE 04:51:27 84° ENE 04:54:44 10° E
Cosmos 1707 2.7 04:50:19 45° S 04:51:26 78° E 04:55:19 10° N
CZ-4B R/B 4.3 04:46:35 10° NNE 04:51:39 41° E 04:56:37 10° S
Cosmos 1758 Rocket 4.1 04:53:04 39° WNW 04:53:04 39° WNW 04:57:05 10° N
Landsat 4 3.6 04:53:40 26° SSE 04:55:39 86° ENE 04:59:23 10° NNW
USA 161 3.6 04:58:24 19° NNW 04:58:24 19° NNW 04:59:27 10° NNW
Cosmos 1470 2.6 04:53:09 10° N 04:57:03 87° W 04:59:05 27° S
NOSS 2-2 (C) 3.9 04:57:01 40° W 04:57:40 43° NW 05:01:56 10° NNE
CZ-3 R/B 4.3 04:48:03 16° SSW 04:59:24 25° S 05:06:19 10° ESE
Cosmos 1624 Rocket 4.0 04:55:10 10° NNW 05:00:16 56° WSW 05:05:21 10° S
Cosmos-2242 2.9 05:00:10 10° N 05:04:34 77° W 05:08:27 13° S
Cosmos 1727 Rocket 3.9 05:01:32 22° SSW 05:05:38 66° W 05:11:47 10° N
PSLV R/B 4.3 05:02:16 10° NNE 05:06:33 53° E 05:10:46 10° S
UNKNOWN OBJECT B 4.3 05:04:07 10° NNW 05:07:01 22° WNW 05:07:01 22° WNW
Cosmos 2056 Rocket 3.8 05:08:13 10° NNW 05:13:16 45° WSW 05:18:13 10° S
Cosmos 921 Rocket 3.4 05:11:03 10° NNW 05:15:19 44° W 05:19:28 11° S
Intelsat 5-3 Rocket 4.1 05:17:09 13° S 05:17:09 13° S 05:18:09 10° SSE
Cosmos 1153 Rocket 4.4 05:11:35 10° N 05:17:42 74° W 05:23:47 10° S
Meteor 1-24 Rocket 4.0 05:12:54 10° S 05:18:12 65° E 05:23:43 10° NNE
SL-16 R/B 4.0 05:19:35 16° W 05:19:35 16° W 05:22:41 10° NW
DNEPR-1 R/B 4.4 05:17:01 10° NNW 05:21:09 52° ENE 05:25:36 10° SE
PSLV R/B 4.1 05:19:53 10° N 05:23:51 50° WNW 05:26:25 21° SW
CZ-4B R/B 3.1 05:21:16 10° N 05:25:31 65° WNW 05:29:22 13° SSW
Cosmos 1378 3.2 05:23:26 22° SSW 05:25:39 54° W 05:29:19 10° N
MOS 1 Rocket 4.2 05:23:14 10° NNW 05:26:52 27° WNW 05:28:31 21° WSW
Lacrosse 5 rocket 2.7 05:26:10 19° W 05:28:38 31° NW 05:32:49 10° NNE
CZ-3A R/B 4.4 05:22:23 10° SSW 05:28:46 33° SE 06:02:46 10° E
Cosmos 1802 Rocket 4.4 05:26:05 10° N 05:32:31 70° E 05:38:52 10° SSE
IRS-1C Rocket 4.1 05:33:03 10° N 05:38:16 66° WNW 05:43:29 10° SSW
Okean O Rocket 2.2 05:40:50 10° N 05:44:58 39° WNW 05:49:03 10° SW
Cosmos 158 Rocket 3.9 05:40:35 10° SSW 05:45:31 86° WNW 05:50:38 10° NNE
Timation 2 Rocket 4.4 05:39:00 10° SSW 05:45:43 74° ESE 05:52:14 10° NNE
CZ-4B DEB 4.3 05:40:31 10° N 05:45:54 58° WNW 05:51:15 10° SSW
COSMOS 2487 3.7 05:45:51 16° WSW 05:47:53 25° WNW 05:50:54 10° N
Cosmos 1452 Rocket 3.6 05:43:25 10° NNW 05:48:32 54° WSW 05:53:38 10° S
Cosmos 1459 Rocket 3.9 05:42:39 10° N 05:48:47 73° W 05:55:00 10° S
ADEOS II 2.5 05:44:00 10° N 05:49:00 45° WNW 05:53:58 10° SW
COSMOS 2455 4.3 05:46:47 10° WNW 05:50:02 15° WSW 05:53:16 10° SW
Meteor 2-5 Rocket 4.4 05:45:02 10° SW 05:50:12 37° WNW 05:55:31 10° N
IRAS Rocket 4.3 05:46:40 10° NNE 05:52:18 77° WNW 05:57:54 10° SSW
EO 1 Del DPAF 3.3 05:48:56 10° S 05:52:43 59° W 05:56:33 10° NNW
Tiangong 1 2.7 05:54:58 10° NW 05:57:29 28° NNE 06:00:00 10° E
Cosmos 2278 3.7 05:52:43 10° NNW 05:58:21 61° WSW 06:03:57 10° S
Cosmos 1697 Rocket 3.3 05:53:27 10° NNW 05:59:00 61° ENE 06:04:33 10° SSE
SAR-Lupe-3 4.5 05:58:19 10° S 06:01:52 80° WSW 06:05:28 10° NNW
EXPRESS MD2 4.4 06:01:05 10° NW 06:04:26 31° NNE 06:06:39 10° E
Cosmos 2369 3.8 05:59:29 10° NNW 06:05:04 54° WSW 06:10:37 10° S
Cosmos 1420 Rocket 4.1 06:02:00 10° NNW 06:07:13 58° WSW 06:12:23 10° S
Cosmos 1048 Rocket 4.4 06:05:03 10° SW 06:09:54 42° WNW 06:14:47 10° N
Feng Yun 1-1 Rocket 4.2 06:05:42 10° NNE 06:11:12 88° W 06:16:35 10° SSW
Meteor 2-1 Rocket 4.3 06:10:06 10° NNW 06:15:38 58° W 06:21:15 10° S
